Other Public Products
Issued by NWS Charleston, SC

Current Version | Previous Version | Graphics & Text | Print | Product List | Glossary On
Versions: 1 2 3 4 5 6 7 8 9 10 11 12 13 14 15 16 17 18 19 20 21 22 23 24 25 26 27 28 29 30 31 32 33 34 35 36 37 38 39 40 41 42 43 44 45 46 47 48 49 50
000
FPUS82 KCHS 200512
OPUCHS

TEST...KCHS/KSAV Gateway Observations...TEST
National Weather Service Charleston SC
100 AM EDT FRI OCT 20 2017

NOTE: "fair" indicates few or no clouds below 12,000 feet with no
significant weather and/or obstructions to visibility.

SCZ050-WAZ558-NCZ071-TXZ119-213-PAZ071-DCZ001-FLZ074-172-MI076-
NYZ176-178-MAZ016-IL014-TNZ027-NJZ106-GAZ044-MD014-200600-

...Gateway Observations for Charleston International...

CITY           SKY/WX    TMP DP  RH WIND       PRES   REMARKS
Chas Airport   FAIR      58  57  97 N3        30.22S
Seattle        CLOUDY    50  48  93 S12       29.51R
Charlotte      FAIR      47  46  97 CALM      30.25S
Dallas DFW     MOCLDY    70  56  61 SE10      30.08S
Dallas Love    MOCLDY    71  55  56 SE17      30.09S
Philladelphia  FAIR      57  51  80 W8        30.14S
Wash National  FAIR      59  51  75 SW5       30.18S
Baltimore      FAIR      50  48  93 W6        30.15F
Miami          FAIR      81  74  79 NE7       30.03F
Detroit        FAIR      51  33  50 NW5       30.20R
Newark         MOCLDY    59  47  64 SW8       30.09S
Laguardia      FAIR      66  46  48 SW9       30.07S
J F K          FAIR      58  53  84 SW10      30.09F
Boston Logan   FAIR      59  51  75 SW12      29.99S
Ft. Lauderdale FAIR      80  75  84 NE12G21   30.02F
Chicago O`Hare FAIR      56  38  50 S8        30.15S
Chicago Midway FAIR      58  35  42 S7        30.15F
Houston Bush   MOCLDY    68  63  84 E8        30.11R
Houston Hobby  MOCLDY    75  64  68 NE6       30.10F
Nashville      FAIR      51  48  89 S5        30.24F
Atlanta        FAIR      57  46  66 CALM      30.25F

$$

GAZ044-118-TXZ119-213-NCZ071-DCZ001-MDZ014-506-PAZ021-071-NJZ106-
NYZ176-178-MAZ106-OHZ011-021-055-MIZ076-KYZ091-ILZ014-INZ047-
MNZ060-ONZ431-200600-

...Gateway Observations for Savannah International...

CITY           SKY/WX    TMP DP  RH WIND       PRES   REMARKS
Savannah Arpt  FAIR      59  59 100 NW3       30.22F FOG
Atlanta        FAIR      57  46  66 CALM      30.25F
Charlotte      FAIR      47  46  97 CALM      30.25S
Dallas DFW     MOCLDY    70  56  61 SE10      30.08S
Houston Bush   MOCLDY    68  63  84 E8        30.11R
Wash National  FAIR      59  51  75 SW5       30.18S
Wash Dulles    FAIR      48  46  93 CALM      30.18S
Baltimore      FAIR      50  48  93 W6        30.15F
Philadelphia   FAIR      57  51  80 W8        30.14S
Newark         MOCLDY    59  47  64 SW8       30.09S
Laguardia      FAIR      66  46  48 SW9       30.07S
J F K          FAIR      58  53  84 SW10      30.09F
Boston         FAIR      59  51  75 SW12      29.99S
Pittsburg      MOCLDY    55  47  74 W5        30.20R
Akron          FAIR      56  47  71 W3        30.20R
Cleveland      FAIR      51  47  86 CALM      30.21R
Cincinnati     FAIR      57  52  83 CALM      30.23S
Columbus       FAIR      52  49  90 S6        30.21F
Detroit        FAIR      51  33  50 NW5       30.20R
Chicago O`Hare FAIR      56  38  50 S8        30.15S
Minneapolis    FAIR      55  42  61 SE9       29.93F
Indianapolis   FAIR      58  51  78 SW5       30.22S
Toronto Canada MOCLDY    45  36  70 W10       30.09F

$$




USA.gov is the U.S. government's official web portal to all federal, state and local government web resources and services.